owner,sensor,date,latitude,longitude,vertical_datum,mass_concentration_of_oxygen_in_sea_water,qcFlag 
SCCF RECON,ioos:station:SCCF:12:1,2008-11-01T00:00:00Z,26.4966,-82.1479,2.27,7.55,1111122 
SCCF RECON,ioos:station:SCCF:12:1,2008-11-01T01:00:00Z,26.4966,-82.1479,2.277,7.41,1111122 
SCCF RECON,ioos:station:SCCF:12:1,2008-11-01T02:00:00Z,26.4966,-82.1479,2.3,7.42,1111122 
SCCF RECON,ioos:station:SCCF:12:1,2008-11-01T03:00:00Z,26.4966,-82.1479,2.348,7.33,1111122 
SCCF RECON,ioos:station:SCCF:12:1,2008-11-01T04:00:00Z,26.4966,-82.1479,2.4,7.15,1111122 
SCCF RECON,ioos:station:SCCF:12:1,2008-11-01T05:00:00Z,26.4966,-82.1479,2.461,7.04,1111122 
SCCF RECON,ioos:station:SCCF:12:1,2008-11-01T06:00:00Z,26.4966,-82.1479,2.511,6.96,1111122 
SCCF RECON,ioos:station:SCCF:12:1,2008-11-01T07:00:00Z,26.4966,-82.1479,2.486,6.75,1111122 
SCCF RECON,ioos:station:SCCF:12:1,2008-11-01T08:00:00Z,26.4966,-82.1479,2.405,6.82,1111122 
SCCF RECON,ioos:station:SCCF:12:1,2008-11-01T09:00:00Z,26.4966,-82.1479,2.302,6.78,1111122 
SCCF RECON,ioos:station:SCCF:12:1,2008-11-01T10:00:00Z,26.4966,-82.1479,2.187,6.84,1111122 
SCCF RECON,ioos:station:SCCF:12:1,2008-11-01T11:00:00Z,26.4966,-82.1479,2.072,6.88,1111122 
SCCF RECON,ioos:station:SCCF:12:1,2008-11-01T12:00:00Z,26.4966,-82.1479,1.966,6.84,1111122 
SCCF RECON,ioos:station:SCCF:12:1,2008-11-01T13:00:00Z,26.4966,-82.1479,1.869,6.62,1111122 
SCCF RECON,ioos:station:SCCF:12:1,2008-11-01T14:00:00Z,26.4966,-82.1479,1.779,6.6,1111122 
SCCF RECON,ioos:station:SCCF:12:1,2008-11-01T15:00:00Z,26.4966,-82.1479,1.747,6.73,1111122 
SCCF RECON,ioos:station:SCCF:12:1,2008-11-01T16:00:00Z,26.4966,-82.1479,1.825,6.96,1111122 
SCCF RECON,ioos:station:SCCF:12:1,2008-11-01T17:00:00Z,26.4966,-82.1479,1.967,7.02,1111122 
SCCF RECON,ioos:station:SCCF:12:1,2008-11-01T18:00:00Z,26.4966,-82.1479,2.087,7.2,1111122 
SCCF RECON,ioos:station:SCCF:12:1,2008-11-01T19:00:00Z,26.4966,-82.1479,2.17,7.23,1111122 
SCCF RECON,ioos:station:SCCF:12:1,2008-11-01T20:00:00Z,26.4966,-82.1479,2.249,7.27,1111122 
SCCF RECON,ioos:station:SCCF:12:1,2008-11-01T21:00:00Z,26.4966,-82.1479,2.292,7.27,1111122 
SCCF RECON,ioos:station:SCCF:12:1,2008-11-01T22:00:00Z,26.4966,-82.1479,2.31,7.26,1111122 
SCCF RECON,ioos:station:SCCF:12:1,2008-11-01T23:00:00Z,26.4966,-82.1479,2.31,7.19,1111122 
SCCF RECON,ioos:station:SCCF:12:1,2008-11-02T00:00:00Z,26.4966,-82.1479,2.292,7.37,1111122 
SCCF RECON,ioos:station:SCCF:12:1,2008-11-02T01:00:00Z,26.4966,-82.1479,2.31,7.5,1111122 
SCCF RECON,ioos:station:SCCF:12:1,2008-11-02T02:00:00Z,26.4966,-82.1479,2.373,7.45,1111122 
SCCF RECON,ioos:station:SCCF:12:1,2008-11-02T03:00:00Z,26.4966,-82.1479,2.448,7.05,1111122 
SCCF RECON,ioos:station:SCCF:12:1,2008-11-02T04:00:00Z,26.4966,-82.1479,2.52,7.05,1111122 
SCCF RECON,ioos:station:SCCF:12:1,2008-11-02T05:00:00Z,26.4966,-82.1479,2.58,6.77,1111122 
SCCF RECON,ioos:station:SCCF:12:1,2008-11-02T06:00:00Z,26.4966,-82.1479,2.617,6.69,1111122 
SCCF RECON,ioos:station:SCCF:12:1,2008-11-02T07:00:00Z,26.4966,-82.1479,2.613,6.59,1111122 
SCCF RECON,ioos:station:SCCF:12:1,2008-11-02T08:00:00Z,26.4966,-82.1479,2.587,6.64,1111122 
SCCF RECON,ioos:station:SCCF:12:1,2008-11-02T09:00:00Z,26.4966,-82.1479,2.52,6.76,1111122 
SCCF RECON,ioos:station:SCCF:12:1,2008-11-02T10:00:00Z,26.4966,-82.1479,2.419,7.01,1111122 
SCCF RECON,ioos:station:SCCF:12:1,2008-11-02T11:00:00Z,26.4966,-82.1479,2.311,7.0,1111122 
SCCF RECON,ioos:station:SCCF:12:1,2008-11-02T12:00:00Z,26.4966,-82.1479,2.21,6.95,1111122 
SCCF RECON,ioos:station:SCCF:12:1,2008-11-02T13:00:00Z,26.4966,-82.1479,2.107,6.52,1111122 
SCCF RECON,ioos:station:SCCF:12:1,2008-11-02T14:00:00Z,26.4966,-82.1479,2.009,6.56,1111122 
SCCF RECON,ioos:station:SCCF:12:1,2008-11-02T15:00:00Z,26.4966,-82.1479,1.94,6.0,1111122 
SCCF RECON,ioos:station:SCCF:12:1,2008-11-02T16:00:00Z,26.4966,-82.1479,1.949,6.53,1111122 
SCCF RECON,ioos:station:SCCF:12:1,2008-11-02T17:00:00Z,26.4966,-82.1479,2.059,7.05,1111122 
SCCF RECON,ioos:station:SCCF:12:1,2008-11-02T18:00:00Z,26.4966,-82.1479,2.172,6.86,1111122 
SCCF RECON,ioos:station:SCCF:12:1,2008-11-02T19:00:00Z,26.4966,-82.1479,2.267,6.85,1111122 
SCCF RECON,ioos:station:SCCF:12:1,2008-11-02T20:00:00Z,26.4966,-82.1479,2.339,7.18,1111122 
SCCF RECON,ioos:station:SCCF:12:1,2008-11-02T21:00:00Z,26.4966,-82.1479,2.36,7.31,1111122 
SCCF RECON,ioos:station:SCCF:12:1,2008-11-02T22:00:00Z,26.4966,-82.1479,2.37,7.19,1111122 
SCCF RECON,ioos:station:SCCF:12:1,2008-11-02T23:00:00Z,26.4966,-82.1479,2.371,7.11,1111122 
SCCF RECON,ioos:station:SCCF:12:1,2008-11-03T00:00:00Z,26.4966,-82.1479,2.36,6.66,1111122 
SCCF RECON,ioos:station:SCCF:12:1,2008-11-03T01:00:00Z,26.4966,-82.1479,2.37,6.98,1111122 
SCCF RECON,ioos:station:SCCF:12:1,2008-11-03T02:00:00Z,26.4966,-82.1479,2.361,7.09,1111122 
SCCF RECON,ioos:station:SCCF:12:1,2008-11-03T03:00:00Z,26.4966,-82.1479,2.4,7.0,1111122 
SCCF RECON,ioos:station:SCCF:12:1,2008-11-03T04:00:00Z,26.4966,-82.1479,2.439,6.69,1111122 
SCCF RECON,ioos:station:SCCF:12:1,2008-11-03T05:00:00Z,26.4966,-82.1479,2.462,6.74,1111122 
SCCF RECON,ioos:station:SCCF:12:1,2008-11-03T06:00:00Z,26.4966,-82.1479,2.492,6.68,1111122 
SCCF RECON,ioos:station:SCCF:12:1,2008-11-03T07:00:00Z,26.4966,-82.1479,2.533,6.69,1111122 
SCCF RECON,ioos:station:SCCF:12:1,2008-11-03T08:00:00Z,26.4966,-82.1479,2.541,6.65,1111122 
SCCF RECON,ioos:station:SCCF:12:1,2008-11-03T09:00:00Z,26.4966,-82.1479,2.483,6.47,1111122 
SCCF RECON,ioos:station:SCCF:12:1,2008-11-03T10:00:00Z,26.4966,-82.1479,2.405,6.46,1111122 
SCCF RECON,ioos:station:SCCF:12:1,2008-11-03T11:00:00Z,26.4966,-82.1479,2.302,6.59,1111122 
SCCF RECON,ioos:station:SCCF:12:1,2008-11-03T12:00:00Z,26.4966,-82.1479,2.2,6.58,1111122 
SCCF RECON,ioos:station:SCCF:12:1,2008-11-03T13:00:00Z,26.4966,-82.1479,2.093,6.27,1111122 
SCCF RECON,ioos:station:SCCF:12:1,2008-11-03T14:00:00Z,26.4966,-82.1479,2.001,6.52,1111122 
SCCF RECON,ioos:station:SCCF:12:1,2008-11-03T15:00:00Z,26.4966,-82.1479,1.93,6.2,1111122 
SCCF RECON,ioos:station:SCCF:12:1,2008-11-03T16:00:00Z,26.4966,-82.1479,1.893,6.28,1111122 
SCCF RECON,ioos:station:SCCF:12:1,2008-11-03T17:00:00Z,26.4966,-82.1479,1.93,6.42,1111122 
SCCF RECON,ioos:station:SCCF:12:1,2008-11-03T18:00:00Z,26.4966,-82.1479,2.03,6.65,1111122 
SCCF RECON,ioos:station:SCCF:12:1,2008-11-03T19:00:00Z,26.4966,-82.1479,2.127,6.57,1111122 
SCCF RECON,ioos:station:SCCF:12:1,2008-11-03T20:00:00Z,26.4966,-82.1479,2.21,6.54,1111122 
SCCF RECON,ioos:station:SCCF:12:1,2008-11-03T21:00:00Z,26.4966,-82.1479,2.283,6.84,1111122 
SCCF RECON,ioos:station:SCCF:12:1,2008-11-03T22:00:00Z,26.4966,-82.1479,2.32,7.02,1111122 
SCCF RECON,ioos:station:SCCF:12:1,2008-11-03T23:00:00Z,26.4966,-82.1479,2.336,6.9,1111122 
SCCF RECON,ioos:station:SCCF:12:1,2008-11-04T00:00:00Z,26.4966,-82.1479,2.343,6.24,1111122 
SCCF RECON,ioos:station:SCCF:12:1,2008-11-04T01:00:00Z,26.4966,-82.1479,2.324,6.79,1111122 
SCCF RECON,ioos:station:SCCF:12:1,2008-11-04T02:00:00Z,26.4966,-82.1479,2.31,6.87,1111122 
SCCF RECON,ioos:station:SCCF:12:1,2008-11-04T03:00:00Z,26.4966,-82.1479,2.34,6.63,1111122 
SCCF RECON,ioos:station:SCCF:12:1,2008-11-04T04:00:00Z,26.4966,-82.1479,2.37,6.44,1111122 
SCCF RECON,ioos:station:SCCF:12:1,2008-11-04T05:00:00Z,26.4966,-82.1479,2.4,6.25,1111122 
SCCF RECON,ioos:station:SCCF:12:1,2008-11-04T06:00:00Z,26.4966,-82.1479,2.409,6.41,1111122 
SCCF RECON,ioos:station:SCCF:12:1,2008-11-04T07:00:00Z,26.4966,-82.1479,2.417,6.39,1111122 
SCCF RECON,ioos:station:SCCF:12:1,2008-11-04T08:00:00Z,26.4966,-82.1479,2.427,6.36,1111122 
SCCF RECON,ioos:station:SCCF:12:1,2008-11-04T09:00:00Z,26.4966,-82.1479,2.421,6.27,1111122 
SCCF RECON,ioos:station:SCCF:12:1,2008-11-04T10:00:00Z,26.4966,-82.1479,2.37,6.17,1111122 
SCCF RECON,ioos:station:SCCF:12:1,2008-11-04T11:00:00Z,26.4966,-82.1479,2.309,6.26,1111122 
SCCF RECON,ioos:station:SCCF:12:1,2008-11-04T12:00:00Z,26.4966,-82.1479,2.237,6.3,1111122 
SCCF RECON,ioos:station:SCCF:12:1,2008-11-04T13:00:00Z,26.4966,-82.1479,2.152,6.21,1111122 
SCCF RECON,ioos:station:SCCF:12:1,2008-11-04T14:00:00Z,26.4966,-82.1479,2.061,6.22,1111122 
SCCF RECON,ioos:station:SCCF:12:1,2008-11-04T15:00:00Z,26.4966,-82.1479,1.989,6.19,1111122 
SCCF RECON,ioos:station:SCCF:12:1,2008-11-04T16:00:00Z,26.4966,-82.1479,1.936,6.07,1111122 
SCCF RECON,ioos:station:SCCF:12:1,2008-11-04T17:00:00Z,26.4966,-82.1479,1.9,6.19,1111122 
SCCF RECON,ioos:station:SCCF:12:1,2008-11-04T18:00:00Z,26.4966,-82.1479,1.918,6.49,1111122 
SCCF RECON,ioos:station:SCCF:12:1,2008-11-04T19:00:00Z,26.4966,-82.1479,1.983,6.39,1111122 
SCCF RECON,ioos:station:SCCF:12:1,2008-11-04T20:00:00Z,26.4966,-82.1479,2.062,6.37,1111122 
SCCF RECON,ioos:station:SCCF:12:1,2008-11-04T21:00:00Z,26.4966,-82.1479,2.15,6.28,1111122 
SCCF RECON,ioos:station:SCCF:12:1,2008-11-04T22:00:00Z,26.4966,-82.1479,2.23,6.51,1111122 
SCCF RECON,ioos:station:SCCF:12:1,2008-11-04T23:00:00Z,26.4966,-82.1479,2.301,6.49,1111122 
SCCF RECON,ioos:station:SCCF:12:1,2008-11-05T00:00:00Z,26.4966,-82.1479,2.336,6.51,1111122 
SCCF RECON,ioos:station:SCCF:12:1,2008-11-05T01:00:00Z,26.4966,-82.1479,2.333,6.14,1111122 
SCCF RECON,ioos:station:SCCF:12:1,2008-11-05T02:00:00Z,26.4966,-82.1479,2.303,5.82,1111122 
SCCF RECON,ioos:station:SCCF:12:1,2008-11-05T03:00:00Z,26.4966,-82.1479,2.283,6.19,1111122 
SCCF RECON,ioos:station:SCCF:12:1,2008-11-05T04:00:00Z,26.4966,-82.1479,2.303,6.21,1111122 
SCCF RECON,ioos:station:SCCF:12:1,2008-11-05T05:00:00Z,26.4966,-82.1479,2.32,6.14,1111122 
SCCF RECON,ioos:station:SCCF:12:1,2008-11-05T06:00:00Z,26.4966,-82.1479,2.34,6.0,1111122 
SCCF RECON,ioos:station:SCCF:12:1,2008-11-05T07:00:00Z,26.4966,-82.1479,2.362,6.12,1111122 
SCCF RECON,ioos:station:SCCF:12:1,2008-11-05T08:00:00Z,26.4966,-82.1479,2.4,6.23,1111122 
SCCF RECON,ioos:station:SCCF:12:1,2008-11-05T09:00:00Z,26.4966,-82.1479,2.43,5.94,1111122 
SCCF RECON,ioos:station:SCCF:12:1,2008-11-05T10:00:00Z,26.4966,-82.1479,2.42,5.93,1111122 
SCCF RECON,ioos:station:SCCF:12:1,2008-11-05T11:00:00Z,26.4966,-82.1479,2.391,5.74,1111122 
SCCF RECON,ioos:station:SCCF:12:1,2008-11-05T12:00:00Z,26.4966,-82.1479,2.329,5.85,1111122 
SCCF RECON,ioos:station:SCCF:12:1,2008-11-05T13:00:00Z,26.4966,-82.1479,2.259,5.79,1111122 
SCCF RECON,ioos:station:SCCF:12:1,2008-11-05T14:00:00Z,26.4966,-82.1479,2.17,6.0,1111122 
SCCF RECON,ioos:station:SCCF:12:1,2008-11-05T15:00:00Z,26.4966,-82.1479,2.095,6.12,1111122 
SCCF RECON,ioos:station:SCCF:12:1,2008-11-05T16:00:00Z,26.4966,-82.1479,2.024,6.2,1111122 
SCCF RECON,ioos:station:SCCF:12:1,2008-11-05T17:00:00Z,26.4966,-82.1479,1.975,6.34,1111122 
SCCF RECON,ioos:station:SCCF:12:1,2008-11-05T18:00:00Z,26.4966,-82.1479,1.946,6.47,1111122 
SCCF RECON,ioos:station:SCCF:12:1,2008-11-05T19:00:00Z,26.4966,-82.1479,1.972,6.67,1111122 
SCCF RECON,ioos:station:SCCF:12:1,2008-11-05T20:00:00Z,26.4966,-82.1479,2.043,6.7,1111122 
SCCF RECON,ioos:station:SCCF:12:1,2008-11-05T21:00:00Z,26.4966,-82.1479,2.119,6.58,1111122 
SCCF RECON,ioos:station:SCCF:12:1,2008-11-05T22:00:00Z,26.4966,-82.1479,2.195,6.59,1111122 
SCCF RECON,ioos:station:SCCF:12:1,2008-11-05T23:00:00Z,26.4966,-82.1479,2.253,6.62,1111122 
SCCF RECON,ioos:station:SCCF:12:1,2008-11-06T00:00:00Z,26.4966,-82.1479,2.307,6.45,1111122 
SCCF RECON,ioos:station:SCCF:12:1,2008-11-06T01:00:00Z,26.4966,-82.1479,2.361,6.41,1111122 
SCCF RECON,ioos:station:SCCF:12:1,2008-11-06T02:00:00Z,26.4966,-82.1479,2.369,6.44,1111122 
SCCF RECON,ioos:station:SCCF:12:1,2008-11-06T03:00:00Z,26.4966,-82.1479,2.339,6.4,1111122 
SCCF RECON,ioos:station:SCCF:12:1,2008-11-06T04:00:00Z,26.4966,-82.1479,2.309,6.47,1111122 
SCCF RECON,ioos:station:SCCF:12:1,2008-11-06T05:00:00Z,26.4966,-82.1479,2.278,6.42,1111122 
SCCF RECON,ioos:station:SCCF:12:1,2008-11-06T06:00:00Z,26.4966,-82.1479,2.267,6.38,1111122 
SCCF RECON,ioos:station:SCCF:12:1,2008-11-06T07:00:00Z,26.4966,-82.1479,2.277,6.37,1111122 
SCCF RECON,ioos:station:SCCF:12:1,2008-11-06T08:00:00Z,26.4966,-82.1479,2.32,6.23,1111122 
SCCF RECON,ioos:station:SCCF:12:1,2008-11-06T09:00:00Z,26.4966,-82.1479,2.37,6.08,1111122 
SCCF RECON,ioos:station:SCCF:12:1,2008-11-06T10:00:00Z,26.4966,-82.1479,2.42,5.98,1111122 
SCCF RECON,ioos:station:SCCF:12:1,2008-11-06T11:00:00Z,26.4966,-82.1479,2.44,5.94,1111122 
SCCF RECON,ioos:station:SCCF:12:1,2008-11-06T12:00:00Z,26.4966,-82.1479,2.43,5.82,1111122 
SCCF RECON,ioos:station:SCCF:12:1,2008-11-06T13:00:00Z,26.4966,-82.1479,2.39,5.89,1111122 
SCCF RECON,ioos:station:SCCF:12:1,2008-11-06T14:00:00Z,26.4966,-82.1479,2.332,6.03,1111122 
SCCF RECON,ioos:station:SCCF:12:1,2008-11-06T15:00:00Z,26.4966,-82.1479,2.245,6.15,1111122 
SCCF RECON,ioos:station:SCCF:12:1,2008-11-06T17:00:00Z,26.4966,-82.1479,2.092,6.55,1111122 
SCCF RECON,ioos:station:SCCF:12:1,2008-11-06T18:00:00Z,26.4966,-82.1479,2.045,6.72,1111122 
SCCF RECON,ioos:station:SCCF:12:1,2008-11-06T19:00:00Z,26.4966,-82.1479,2.03,6.41,1111122 
SCCF RECON,ioos:station:SCCF:12:1,2008-11-06T20:00:00Z,26.4966,-82.1479,2.05,6.34,1111122 
SCCF RECON,ioos:station:SCCF:12:1,2008-11-06T21:00:00Z,26.4966,-82.1479,2.12,6.6,1111122 
SCCF RECON,ioos:station:SCCF:12:1,2008-11-06T22:00:00Z,26.4966,-82.1479,2.212,6.9,1111122 
SCCF RECON,ioos:station:SCCF:12:1,2008-11-06T23:00:00Z,26.4966,-82.1479,2.301,6.52,1111122 
SCCF RECON,ioos:station:SCCF:12:1,2008-11-07T00:00:00Z,26.4966,-82.1479,2.37,6.28,1111122 
SCCF RECON,ioos:station:SCCF:12:1,2008-11-07T01:00:00Z,26.4966,-82.1479,2.41,6.02,1111122 
SCCF RECON,ioos:station:SCCF:12:1,2008-11-07T02:00:00Z,26.4966,-82.1479,2.429,6.27,1111122 
SCCF RECON,ioos:station:SCCF:12:1,2008-11-07T03:00:00Z,26.4966,-82.1479,2.402,6.46,1111122 
SCCF RECON,ioos:station:SCCF:12:1,2008-11-07T04:00:00Z,26.4966,-82.1479,2.343,6.43,1111122 
SCCF RECON,ioos:station:SCCF:12:1,2008-11-07T05:00:00Z,26.4966,-82.1479,2.285,6.46,1111122 
SCCF RECON,ioos:station:SCCF:12:1,2008-11-07T06:00:00Z,26.4966,-82.1479,2.231,6.35,1111122 
SCCF RECON,ioos:station:SCCF:12:1,2008-11-07T07:00:00Z,26.4966,-82.1479,2.181,6.39,1111122 
SCCF RECON,ioos:station:SCCF:12:1,2008-11-07T08:00:00Z,26.4966,-82.1479,2.2,6.32,1111122 
SCCF RECON,ioos:station:SCCF:12:1,2008-11-07T09:00:00Z,26.4966,-82.1479,2.27,6.05,1111122 
SCCF RECON,ioos:station:SCCF:12:1,2008-11-07T10:00:00Z,26.4966,-82.1479,2.33,5.85,1111122 
SCCF RECON,ioos:station:SCCF:12:1,2008-11-07T11:00:00Z,26.4966,-82.1479,2.39,6.0,1111122 
SCCF RECON,ioos:station:SCCF:12:1,2008-11-07T12:00:00Z,26.4966,-82.1479,2.43,6.18,1111122 
SCCF RECON,ioos:station:SCCF:12:1,2008-11-07T13:00:00Z,26.4966,-82.1479,2.418,5.99,1111122 
SCCF RECON,ioos:station:SCCF:12:1,2008-11-07T14:00:00Z,26.4966,-82.1479,2.37,6.02,1111122 
SCCF RECON,ioos:station:SCCF:12:1,2008-11-07T15:00:00Z,26.4966,-82.1479,2.316,6.18,1111122 
SCCF RECON,ioos:station:SCCF:12:1,2008-11-07T16:00:00Z,26.4966,-82.1479,2.24,6.21,1111122 
SCCF RECON,ioos:station:SCCF:12:1,2008-11-07T17:00:00Z,26.4966,-82.1479,2.16,6.34,1111122 
SCCF RECON,ioos:station:SCCF:12:1,2008-11-07T18:00:00Z,26.4966,-82.1479,2.087,6.41,1111122 
SCCF RECON,ioos:station:SCCF:12:1,2008-11-07T19:00:00Z,26.4966,-82.1479,2.03,6.52,1111122 
SCCF RECON,ioos:station:SCCF:12:1,2008-11-07T20:00:00Z,26.4966,-82.1479,2.006,6.62,1111122 
SCCF RECON,ioos:station:SCCF:12:1,2008-11-07T21:00:00Z,26.4966,-82.1479,2.057,6.33,1111122 
SCCF RECON,ioos:station:SCCF:12:1,2008-11-07T22:00:00Z,26.4966,-82.1479,2.16,6.36,1111122 
SCCF RECON,ioos:station:SCCF:12:1,2008-11-07T23:00:00Z,26.4966,-82.1479,2.247,6.28,1111122 
SCCF RECON,ioos:station:SCCF:12:1,2008-11-08T00:00:00Z,26.4966,-82.1479,2.33,6.46,1111122 
SCCF RECON,ioos:station:SCCF:12:1,2008-11-08T01:00:00Z,26.4966,-82.1479,2.41,6.37,1111122 
SCCF RECON,ioos:station:SCCF:12:1,2008-11-08T02:00:00Z,26.4966,-82.1479,2.46,6.41,1111122 
SCCF RECON,ioos:station:SCCF:12:1,2008-11-08T03:00:00Z,26.4966,-82.1479,2.462,6.41,1111122 
SCCF RECON,ioos:station:SCCF:12:1,2008-11-08T04:00:00Z,26.4966,-82.1479,2.405,6.35,1111122 
SCCF RECON,ioos:station:SCCF:12:1,2008-11-08T05:00:00Z,26.4966,-82.1479,2.322,6.39,1111122 
SCCF RECON,ioos:station:SCCF:12:1,2008-11-08T06:00:00Z,26.4966,-82.1479,2.224,6.37,1111122 
SCCF RECON,ioos:station:SCCF:12:1,2008-11-08T07:00:00Z,26.4966,-82.1479,2.149,6.31,1111122 
SCCF RECON,ioos:station:SCCF:12:1,2008-11-08T08:00:00Z,26.4966,-82.1479,2.1,6.3,1111122 
SCCF RECON,ioos:station:SCCF:12:1,2008-11-08T09:00:00Z,26.4966,-82.1479,2.11,6.06,1111122 
SCCF RECON,ioos:station:SCCF:12:1,2008-11-08T10:00:00Z,26.4966,-82.1479,2.171,5.82,1111122 
SCCF RECON,ioos:station:SCCF:12:1,2008-11-08T11:00:00Z,26.4966,-82.1479,2.27,5.99,1111122 
SCCF RECON,ioos:station:SCCF:12:1,2008-11-08T12:00:00Z,26.4966,-82.1479,2.364,5.96,1111122 
SCCF RECON,ioos:station:SCCF:12:1,2008-11-08T13:00:00Z,26.4966,-82.1479,2.407,5.76,1111122 
SCCF RECON,ioos:station:SCCF:12:1,2008-11-08T14:00:00Z,26.4966,-82.1479,2.417,5.8,1111122 
SCCF RECON,ioos:station:SCCF:12:1,2008-11-08T15:00:00Z,26.4966,-82.1479,2.38,5.86,1111122 
SCCF RECON,ioos:station:SCCF:12:1,2008-11-08T16:00:00Z,26.4966,-82.1479,2.3,6.08,1111122 
SCCF RECON,ioos:station:SCCF:12:1,2008-11-08T17:00:00Z,26.4966,-82.1479,2.228,6.3,1111122 
SCCF RECON,ioos:station:SCCF:12:1,2008-11-08T18:00:00Z,26.4966,-82.1479,2.142,6.48,1111122 
SCCF RECON,ioos:station:SCCF:12:1,2008-11-08T19:00:00Z,26.4966,-82.1479,2.081,6.61,1111122 
SCCF RECON,ioos:station:SCCF:12:1,2008-11-08T20:00:00Z,26.4966,-82.1479,2.036,6.58,1111122 
SCCF RECON,ioos:station:SCCF:12:1,2008-11-08T21:00:00Z,26.4966,-82.1479,2.018,6.54,1111122 
SCCF RECON,ioos:station:SCCF:12:1,2008-11-08T22:00:00Z,26.4966,-82.1479,2.057,6.44,1111122 
SCCF RECON,ioos:station:SCCF:12:1,2008-11-08T23:00:00Z,26.4966,-82.1479,2.152,6.31,1111122 
SCCF RECON,ioos:station:SCCF:12:1,2008-11-09T00:00:00Z,26.4966,-82.1479,2.27,6.39,1111122 
SCCF RECON,ioos:station:SCCF:12:1,2008-11-09T01:00:00Z,26.4966,-82.1479,2.384,6.19,1111122 
SCCF RECON,ioos:station:SCCF:12:1,2008-11-09T02:00:00Z,26.4966,-82.1479,2.478,6.08,1111122 
SCCF RECON,ioos:station:SCCF:12:1,2008-11-09T03:00:00Z,26.4966,-82.1479,2.508,6.16,1111122 
SCCF RECON,ioos:station:SCCF:12:1,2008-11-09T04:00:00Z,26.4966,-82.1479,2.469,6.16,1111122 
SCCF RECON,ioos:station:SCCF:12:1,2008-11-09T05:00:00Z,26.4966,-82.1479,2.365,6.13,1111122 
SCCF RECON,ioos:station:SCCF:12:1,2008-11-09T06:00:00Z,26.4966,-82.1479,2.24,6.05,1111122 
SCCF RECON,ioos:station:SCCF:12:1,2008-11-09T07:00:00Z,26.4966,-82.1479,2.156,5.99,1111122 
SCCF RECON,ioos:station:SCCF:12:1,2008-11-09T08:00:00Z,26.4966,-82.1479,2.083,6.09,1111122 
SCCF RECON,ioos:station:SCCF:12:1,2008-11-09T09:00:00Z,26.4966,-82.1479,2.042,6.13,1111122 
SCCF RECON,ioos:station:SCCF:12:1,2008-11-09T10:00:00Z,26.4966,-82.1479,2.045,6.25,1111122 
SCCF RECON,ioos:station:SCCF:12:1,2008-11-09T11:00:00Z,26.4966,-82.1479,2.105,6.2,1111122 
SCCF RECON,ioos:station:SCCF:12:1,2008-11-09T12:00:00Z,26.4966,-82.1479,2.209,6.17,1111122 
SCCF RECON,ioos:station:SCCF:12:1,2008-11-09T13:00:00Z,26.4966,-82.1479,2.314,6.13,1111122 
SCCF RECON,ioos:station:SCCF:12:1,2008-11-09T14:00:00Z,26.4966,-82.1479,2.389,6.14,1111122 
SCCF RECON,ioos:station:SCCF:12:1,2008-11-09T15:00:00Z,26.4966,-82.1479,2.418,6.16,1111122 
SCCF RECON,ioos:station:SCCF:12:1,2008-11-09T16:00:00Z,26.4966,-82.1479,2.376,6.17,1111122 
SCCF RECON,ioos:station:SCCF:12:1,2008-11-09T17:00:00Z,26.4966,-82.1479,2.296,6.23,1111122 
SCCF RECON,ioos:station:SCCF:12:1,2008-11-09T18:00:00Z,26.4966,-82.1479,2.203,6.31,1111122 
SCCF RECON,ioos:station:SCCF:12:1,2008-11-09T19:00:00Z,26.4966,-82.1479,2.106,6.37,1111122 
SCCF RECON,ioos:station:SCCF:12:1,2008-11-09T20:00:00Z,26.4966,-82.1479,2.037,6.47,1111122 
SCCF RECON,ioos:station:SCCF:12:1,2008-11-09T21:00:00Z,26.4966,-82.1479,1.999,6.55,1111122 
SCCF RECON,ioos:station:SCCF:12:1,2008-11-09T22:00:00Z,26.4966,-82.1479,2.039,6.59,1111122 
SCCF RECON,ioos:station:SCCF:12:1,2008-11-09T23:00:00Z,26.4966,-82.1479,2.127,6.68,1111122 
SCCF RECON,ioos:station:SCCF:12:1,2008-11-10T00:00:00Z,26.4966,-82.1479,2.23,6.54,1111122 
SCCF RECON,ioos:station:SCCF:12:1,2008-11-10T01:00:00Z,26.4966,-82.1479,2.327,6.42,1111122 
SCCF RECON,ioos:station:SCCF:12:1,2008-11-10T02:00:00Z,26.4966,-82.1479,2.391,6.26,1111122 
SCCF RECON,ioos:station:SCCF:12:1,2008-11-10T03:00:00Z,26.4966,-82.1479,2.439,6.3,1111122 
SCCF RECON,ioos:station:SCCF:12:1,2008-11-10T04:00:00Z,26.4966,-82.1479,2.426,6.32,1111122 
SCCF RECON,ioos:station:SCCF:12:1,2008-11-10T05:00:00Z,26.4966,-82.1479,2.357,6.25,1111122 
SCCF RECON,ioos:station:SCCF:12:1,2008-11-10T06:00:00Z,26.4966,-82.1479,2.246,6.2,1111122 
SCCF RECON,ioos:station:SCCF:12:1,2008-11-10T07:00:00Z,26.4966,-82.1479,2.118,6.17,1111122 
SCCF RECON,ioos:station:SCCF:12:1,2008-11-10T08:00:00Z,26.4966,-82.1479,1.994,6.25,1111122 
SCCF RECON,ioos:station:SCCF:12:1,2008-11-10T09:00:00Z,26.4966,-82.1479,1.889,6.27,1111122 
SCCF RECON,ioos:station:SCCF:12:1,2008-11-10T10:00:00Z,26.4966,-82.1479,1.821,6.23,1111122 
SCCF RECON,ioos:station:SCCF:12:1,2008-11-10T11:00:00Z,26.4966,-82.1479,1.825,6.25,1111122 
SCCF RECON,ioos:station:SCCF:12:1,2008-11-10T12:00:00Z,26.4966,-82.1479,1.935,6.27,1111122 
SCCF RECON,ioos:station:SCCF:12:1,2008-11-10T13:00:00Z,26.4966,-82.1479,2.099,6.19,1111122 
SCCF RECON,ioos:station:SCCF:12:1,2008-11-10T14:00:00Z,26.4966,-82.1479,2.241,6.1,1111122 
SCCF RECON,ioos:station:SCCF:12:1,2008-11-10T15:00:00Z,26.4966,-82.1479,2.347,6.19,1111122 
SCCF RECON,ioos:station:SCCF:12:1,2008-11-10T16:00:00Z,26.4966,-82.1479,2.391,6.35,1111122 
SCCF RECON,ioos:station:SCCF:12:1,2008-11-10T17:00:00Z,26.4966,-82.1479,2.364,6.36,1111122 
SCCF RECON,ioos:station:SCCF:12:1,2008-11-10T18:00:00Z,26.4966,-82.1479,2.273,6.66,1111122 
SCCF RECON,ioos:station:SCCF:12:1,2008-11-10T19:00:00Z,26.4966,-82.1479,2.188,6.65,1111122 
SCCF RECON,ioos:station:SCCF:12:1,2008-11-10T20:00:00Z,26.4966,-82.1479,2.116,6.86,1111122 
SCCF RECON,ioos:station:SCCF:12:1,2008-11-10T21:00:00Z,26.4966,-82.1479,2.082,6.74,1111122 
SCCF RECON,ioos:station:SCCF:12:1,2008-11-10T22:00:00Z,26.4966,-82.1479,2.099,6.88,1111122 
SCCF RECON,ioos:station:SCCF:12:1,2008-11-10T23:00:00Z,26.4966,-82.1479,2.168,6.8,1111122 
SCCF RECON,ioos:station:SCCF:12:1,2008-11-11T00:00:00Z,26.4966,-82.1479,2.27,6.64,1111122 
SCCF RECON,ioos:station:SCCF:12:1,2008-11-11T01:00:00Z,26.4966,-82.1479,2.4,6.53,1111122 
SCCF RECON,ioos:station:SCCF:12:1,2008-11-11T02:00:00Z,26.4966,-82.1479,2.502,6.26,1111122 
SCCF RECON,ioos:station:SCCF:12:1,2008-11-11T03:00:00Z,26.4966,-82.1479,2.568,6.47,1111122 
SCCF RECON,ioos:station:SCCF:12:1,2008-11-11T04:00:00Z,26.4966,-82.1479,2.562,6.45,1111122 
SCCF RECON,ioos:station:SCCF:12:1,2008-11-11T05:00:00Z,26.4966,-82.1479,2.473,6.54,1111122 
SCCF RECON,ioos:station:SCCF:12:1,2008-11-11T06:00:00Z,26.4966,-82.1479,2.347,6.58,1111122 
SCCF RECON,ioos:station:SCCF:12:1,2008-11-11T07:00:00Z,26.4966,-82.1479,2.201,6.52,1111122 
SCCF RECON,ioos:station:SCCF:12:1,2008-11-11T08:00:00Z,26.4966,-82.1479,2.057,6.47,1111122 
SCCF RECON,ioos:station:SCCF:12:1,2008-11-11T09:00:00Z,26.4966,-82.1479,1.924,6.48,1111122 
SCCF RECON,ioos:station:SCCF:12:1,2008-11-11T10:00:00Z,26.4966,-82.1479,1.813,6.35,1111122 
SCCF RECON,ioos:station:SCCF:12:1,2008-11-11T11:00:00Z,26.4966,-82.1479,1.762,6.28,1111122 
SCCF RECON,ioos:station:SCCF:12:1,2008-11-11T12:00:00Z,26.4966,-82.1479,1.838,6.25,1111122 
SCCF RECON,ioos:station:SCCF:12:1,2008-11-11T13:00:00Z,26.4966,-82.1479,2.026,6.21,1111122 
SCCF RECON,ioos:station:SCCF:12:1,2008-11-11T14:00:00Z,26.4966,-82.1479,2.198,6.29,1111122 
SCCF RECON,ioos:station:SCCF:12:1,2008-11-11T15:00:00Z,26.4966,-82.1479,2.324,6.38,1111122 
SCCF RECON,ioos:station:SCCF:12:1,2008-11-11T16:00:00Z,26.4966,-82.1479,2.406,6.45,1111122 
SCCF RECON,ioos:station:SCCF:12:1,2008-11-11T17:00:00Z,26.4966,-82.1479,2.429,6.44,1111122 
SCCF RECON,ioos:station:SCCF:12:1,2008-11-11T18:00:00Z,26.4966,-82.1479,2.388,6.59,1111122 
SCCF RECON,ioos:station:SCCF:12:1,2008-11-11T19:00:00Z,26.4966,-82.1479,2.32,6.74,1111122 
SCCF RECON,ioos:station:SCCF:12:1,2008-11-11T20:00:00Z,26.4966,-82.1479,2.26,6.83,1111122 